{"data":{"norad_id":52305,"intl_designator":"2022-041AW","name":"STARLINK-3724","alt_names":[],"object_type":"PAYLOAD","status":"ACTIVE","operator":null,"country":"US","launch_date":"2022-04-21","launch_site_code":"AFETR","launch_vehicle":null,"mission":null,"orbit_class":"UNKNOWN","rcs_meters":null,"size_class":null,"mass_kg":null,"dimensions":null,"purposes":["comms"],"wikipedia_slug":null,"has_3d_model":false,"image_url":null,"decayed_at":null,"tle_current":{"epoch":"2026-09-19T19:13:25.034880Z","epoch_age_seconds":120046,"freshness":"FRESH","line1":"1 52305U 22041AW  26262.80098420 -.00000638  00000+0 -80517-5 0  9997","line2":"2 52305  53.1603 295.1070 0001514  69.5361 290.5803 15.33539596243982","mean_motion":15.33539596,"eccentricity":0.0001514,"inclination_deg":53.1603,"raan_deg":295.107,"arg_perigee_deg":69.5361,"mean_anomaly_deg":290.5803,"bstar":-8.0517e-6,"rev_number":24398,"period_min":93.900412076481,"perigee_km":464.22564723498,"apogee_km":466.29782837278,"semimajor_km":6843.3987378039,"source":"CELESTRAK","updated_at":"2026-09-20T09:00:40.019143Z"}}}